Weather History for Cherry Point, NC

Change the Weather History Date:

Wednesday, December 5, 2012

  Actual Average Record
Temperature  
Mean Temperature 63 °F -  
Max Temperature 73 °F 58 °F 75 °F (1998)
Min Temperature 52 °F 38 °F 27 °F (2000)
Degree Days  
Heating Degree Days 2    
Growing Degree Days 13 (Base 50)    
Moisture  
Dew Point 52 °F    
Average Humidity 74    
Maximum Humidity 93    
Minimum Humidity 46    
Precipitation  
Precipitation 0.01 in - - ()
Sea Level Pressure  
Sea Level Pressure 30.16 in    
Wind  
Wind Speed 7 mph ()    
Max Wind Speed 21 mph    
Max Gust Speed 26 mph    
Visibility 10.0 miles    
Events Fog , Rain    
Averages and records for this station are not official NWS values.
T = Trace of Precipitation, MM = Missing Value Source: Averaged Metar Reports

Daily Weather History Graph

Daily Weather History Graph

Search for Another Location

Airport:

Trip Planner

Search our weather history database for the weather conditions in past years. The results will help you decide how hot, cold, wet, or windy it might be!

Date:

Astronomy

Dec. 05, 2012 Rise Set
Actual Time 7:00 AM EST 4:55 PM EST
Civil Twilight 6:32 AM EST 5:23 PM EST
Nautical Twilight 6:01 AM EST 5:55 PM EST
Astronomical Twilight 5:30 AM EST 6:25 PM EST
Moon 11:31 PM EST (12/5) 11:33 AM EST (12/5)
Length of Visible Light 10h 50m
Length of Day
9h 55m
Waning Gibbous, 60% of the Moon is Illuminated
Dec 5
Waning Gibbous
Dec 6
Last Quarter
Dec 13
New
Dec 20
First Quarter
Dec 28
Full

Hourly Weather History & Observations

Time (EST) Temp. Dew Point Humidity Pressure Visibility Wind Dir Wind Speed Gust Speed Precip Events Conditions
12:54 AM 57.9 °F 55.0 °F 90% 30.21 in 10.0 mi WSW 5.8 mph - N/A   Overcast
1:54 AM 57.0 °F 54.0 °F 89% 30.21 in 10.0 mi SW 4.6 mph - N/A   Clear
2:54 AM 55.9 °F 53.1 °F 90% 30.19 in 10.0 mi WSW 5.8 mph - N/A   Clear
3:54 AM 55.9 °F 53.1 °F 90% 30.18 in 10.0 mi WSW 6.9 mph - N/A   Clear
4:54 AM 55.0 °F 53.1 °F 93% 30.16 in 10.0 mi WSW 6.9 mph - N/A   Clear
5:54 AM 57.0 °F 54.0 °F 89% 30.17 in 10.0 mi SW 4.6 mph - N/A   Clear
6:54 AM 53.1 °F 51.1 °F 93% 30.18 in 9.0 mi SW 6.9 mph - N/A Fog Shallow Fog
7:54 AM 57.0 °F 54.0 °F 89% 30.18 in 10.0 mi Variable 5.8 mph - N/A   Clear
9:54 AM 64.9 °F 55.9 °F 73% 30.19 in 10.0 mi West 9.2 mph - N/A   Mostly Cloudy
10:54 AM 70.0 °F 54.0 °F 57% 30.17 in 10.0 mi West 12.7 mph - N/A   Mostly Cloudy
11:54 AM 72.0 °F 51.1 °F 48% 30.14 in 10.0 mi West 13.8 mph 21.9 mph N/A   Mostly Cloudy
12:54 PM 73.9 °F 52.0 °F 46% 30.11 in 10.0 mi West 12.7 mph - N/A   Mostly Cloudy
1:54 PM 73.0 °F 52.0 °F 48% 30.09 in 10.0 mi West 13.8 mph - N/A   Mostly Cloudy
2:54 PM 72.0 °F 53.1 °F 51% 30.09 in 10.0 mi WNW 8.1 mph - N/A   Mostly Cloudy
3:54 PM 70.0 °F 54.0 °F 57% 30.10 in 10.0 mi NW 8.1 mph - N/A   Overcast
4:54 PM 66.9 °F 55.0 °F 66% 30.11 in 10.0 mi North 4.6 mph - N/A   Overcast
5:54 PM 64.9 °F 55.0 °F 70% 30.12 in 10.0 mi NNE 4.6 mph - N/A   Overcast
6:52 PM 64.4 °F 55.4 °F 73% 30.16 in 10.0 mi ENE 19.6 mph 26.5 mph N/A   Overcast
6:54 PM 62.1 °F 54.0 °F 75% 30.15 in 10.0 mi ENE 20.7 mph 26.5 mph N/A   Overcast
7:54 PM 57.9 °F 48.9 °F 72% 30.19 in 10.0 mi NE 11.5 mph - N/A   Overcast
8:54 PM 57.0 °F 45.0 °F 64% 30.19 in 10.0 mi NE 8.1 mph - N/A   Overcast
9:51 PM 53.6 °F 48.2 °F 82% 30.20 in 10.0 mi ENE 6.9 mph - 0.00 in   Overcast
9:54 PM 54.0 °F 48.0 °F 80% 30.19 in 10.0 mi ENE 6.9 mph - 0.00 in   Overcast
10:54 PM 53.1 °F 48.9 °F 86% 30.21 in 10.0 mi NE 6.9 mph - 0.00 in   Overcast
11:54 PM 52.0 °F 45.0 °F 77% 30.20 in 10.0 mi ENE 3.5 mph - 0.01 in Rain Light Rain